This is the latest recevied weather packets stored in our database for station/object OE-11121. If no packets are shown the sender has not sent any weather packets the latest 10 day(s).
| Time | Temp. | Humidity | Pressure | Rain* | Wind** | Luminosity | Snow |
|---|---|---|---|---|---|---|---|
| 1788021333 | 24.44° C | 43% | 1012.7 hPa | 0 mm | - | 276 W/m² | - |
| 1788020732 | 24.44° C | 43% | 1012.8 hPa | 0 mm | - | 216 W/m² | - |
| 1788019906 | 24.44° C | 45% | 1012.8 hPa | 0 mm | - | 156 W/m² | - |
| 1788019533 | 24.44° C | 43% | 1012.7 hPa | 0 mm | - | 216 W/m² | - |
| 1788018932 | 24.44° C | 42% | 1012.6 hPa | 0 mm | - | 264 W/m² | - |
| 1788018106 | 25° C | 42% | 1012.5 hPa | 0 mm | - | 312 W/m² | - |
| 1788017733 | 25° C | 45% | 1012.5 hPa | 0 mm | - | 349 W/m² | - |
| 1788017133 | 25° C | 44% | 1012.4 hPa | 0 mm | - | 397 W/m² | - |
| 1788016306 | 25° C | 45% | 1012.5 hPa | 0 mm | - | 421 W/m² | - |
| 1788015933 | 25° C | 44% | 1012.5 hPa | 0 mm | - | 445 W/m² | - |
| 1788015333 | 25° C | 42% | 1012.5 hPa | 0 mm | - | 565 W/m² | - |
| 1788014506 | 25° C | 46% | 1012.5 hPa | 0 mm | - | 409 W/m² | - |
| 1788014133 | 24.44° C | 44% | 1012.7 hPa | 0 mm | - | 349 W/m² | - |
| 1788013532 | 25° C | 44% | 1012.6 hPa | 0 mm | - | 517 W/m² | - |
| 1788012706 | 25° C | 44% | 1012.7 hPa | 0 mm | - | 589 W/m² | - |
| 1788012333 | 25° C | 40% | 1013 hPa | 0 mm | - | 661 W/m² | - |
| 1788011733 | 25° C | 44% | 1013.1 hPa | 0 mm | - | 673 W/m² | - |
| 1788010906 | 25° C | 42% | 1013.1 hPa | 0 mm | - | 697 W/m² | - |
| 1788010533 | 24.44° C | 41% | 1013.5 hPa | 0 mm | - | 721 W/m² | - |
| 1788009932 | 24.44° C | 39% | 1013.6 hPa | 0 mm | - | 733 W/m² | - |
| 1788009106 | 24.44° C | 42% | 1013.6 hPa | 0 mm | - | 757 W/m² | - |
| 1788008733 | 23.89° C | 45% | 1013.9 hPa | 0 mm | - | 769 W/m² | - |
| 1788008133 | 23.89° C | 46% | 1014.1 hPa | 0 mm | - | 781 W/m² | - |
| 1788007306 | 23.33° C | 47% | 1014.3 hPa | 0 mm | - | 793 W/m² | - |
| 1788006933 | 23.33° C | 46% | 1014.5 hPa | 0 mm | - | 805 W/m² | - |
* Rain latest hour (hover to see other rain measurements)
** Current wind speed in m/s (hover to see current wind gust speed)